Flag for Norway Weather past 2 weeks in Hammerfest, Norway

Now
50 °F

Passing clouds.


Feels Like: 50 °F
Forecast: 48 / 54 °F
Wind: 1 mph from North

Location: Hammerfest

Current Time: Sep 1, 2014 at 11:40:12 PM

Latest Report: Sep 1, 2014 at 10:50 PM


Visibility: N/A

Pressure: 29.95 "Hg

Humidity: 82%

Dew point: 45 °F

Location of HammerfestLocation

Historic Weather in Hammerfest — Graph

°F

Hammerfest temperature yesterday

Maximum temperature yesterday: 50 °F (at 8:50 AM)
Minimum temperature yesterday: 41 °F (at 10:50 PM)
Average temperature yesterday: 48 °F

Past Weeks' High & Low Weather Summary

 TemperatureHumidityPressure
High61 °F (Aug 25, 1:50 PM)100% (Aug 17, 11:50 PM)30.15 "Hg (Aug 17, 11:50 PM)
Low39 °F (Aug 22, 2:50 AM)52% (Aug 25, 1:50 PM)29.56 "Hg (Aug 19, 10:50 PM)
Average48 °F84%29.86 "Hg
* Reported Aug 17 9:50 PM — Sep 1 9:50 PM, Hammerfest, Weather by CustomWeather, © 2014

Note: Actual official high and low records may vary slightly from our data, if they occured in-between our weather recording intervals... More about our weather records

Advertising

Hammerfest weather history for previous 24 hours

 ConditionsComfort  
Time TempWeatherWind HumidityBarometerVisibility
9:50 PM
Sep 1
50 °FPartly cloudy.1 mph82%29.95 "HgN/A
8:50 PM48 °FBroken clouds.1 mph87%29.95 "HgN/A
7:50 PM50 °FBroken clouds.2 mph82%29.95 "HgN/A
6:50 PM48 °FPartly sunny.6 mph87%29.95 "HgN/A
5:50 PM50 °FPartly sunny.8 mph82%29.98 "HgN/A
4:50 PM52 °FPartly sunny.8 mph77%29.98 "HgN/A
3:50 PM54 °FPassing clouds.5 mph72%29.98 "HgN/A
2:50 PM54 °FPassing clouds.5 mph77%29.98 "HgN/A
1:50 PM54 °FClear.6 mph72%29.98 "HgN/A
12:50 PM55 °FScattered clouds.2 mph72%29.98 "HgN/A
11:50 AM52 °FScattered clouds.1 mph77%29.98 "HgN/A
10:50 AM52 °FScattered clouds.5 mph77%29.98 "HgN/A
9:50 AM48 °FScattered clouds.2 mph87%29.98 "HgN/A
8:50 AM48 °FScattered clouds.5 mph87%29.98 "HgN/A
7:50 AM48 °FScattered clouds.1 mph87%29.98 "HgN/A
6:50 AM45 °FPartly sunny.2 mph100%30.01 "HgN/A
5:50 AM41 °FScattered clouds.1 mph100%30.01 "HgN/A
4:50 AM41 °FPassing clouds.2 mph100%30.01 "HgN/A
3:50 AM41 °FClear.1 mph93%30.01 "Hg10 mi
2:50 AM41 °FClear.No wind93%30.04 "Hg10 mi
1:50 AM41 °FClear.2 mph93%30.04 "Hg10 mi
11:50 PM
Aug 31
41 °FClear.1 mph93%30.07 "Hg10 mi
Weather by CustomWeather, © 2014

See weather overviewHow to use our weather pages